Theta_e
322 329 330 330 329 327 326 326 325 325 324 325 326 326 327 326 324 325 324 324 325 325 325 323 322 320 318 316 316 315 314 313 312 311 311 310 309 307 306 305 305 304 304
306 310 322 329 329 328 326 325 325 325 324 326 325 323 324 325 325 324 324 323 324 324 324 324 322 320 319 318 316 315 314 313 311 311 310 309 307 305 304 303 303 302 301
304 307 307 311 327 327 326 326 324 324 324 325 325 324 323 325 325 324 324 324 324 324 323 323 322 320 319 317 316 315 314 313 311 310 309 307 305 304 303 302 302 301 300
304 303 305 305 309 325 325 325 324 324 324 323 325 325 325 324 324 324 324 323 324 324 323 322 321 321 320 318 317 315 314 313 311 310 308 306 305 303 302 301 300 300 299
303 304 305 305 305 310 325 325 324 323 323 322 323 324 325 324 323 323 323 323 324 323 323 322 321 320 319 319 317 316 314 312 311 310 308 306 304 302 301 300 299 299 298
300 302 307 304 304 305 306 324 324 324 323 322 321 322 323 324 323 323 323 323 323 323 323 321 321 319 319 318 318 317 315 313 311 309 308 306 304 302 300 299 298 298 297
299 300 302 302 302 303 304 306 323 324 323 322 315 309 313 318 320 321 321 321 322 323 323 321 321 319 319 318 317 317 316 314 312 310 307 305 304 301 300 298 297 297 296
296 297 298 301 304 305 304 304 305 323 323 317 317 311 306 304 304 315 318 317 320 322 321 321 321 319 318 317 316 317 317 315 312 309 307 305 302 301 299 297 297 296 296
295 296 297 298 301 304 304 303 304 306 321 312 320 316 309 318 301 300 306 313 312 318 318 320 320 319 318 317 316 316 315 314 312 309 307 304 302 300 298 296 295 295 295
292 293 296 299 301 302 304 304 304 306 310 314 317 318 317 314 315 303 297 299 310 307 313 314 317 318 317 317 316 315 314 313 311 308 306 303 301 298 297 295 294 294 294
291 293 295 298 301 304 305 309 308 307 309 312 315 318 314 308 314 304 299 294 297 305 309 308 312 315 318 316 315 314 313 312 308 305 303 300 298 297 295 294 293 293 293
289 290 292 293 295 298 299 301 304 304 305 308 315 318 316 313 311 309 303 302 302 296 302 307 309 313 313 315 314 314 313 311 307 303 299 296 295 294 292 292 292 292 292
289 289 290 292 293 295 297 300 303 305 305 305 309 315 317 316 316 314 313 300 297 290 296 297 301 304 307 311 313 313 311 307 302 296 295 293 291 290 289 289 290 290 290
288 289 290 292 294 296 298 299 300 303 305 306 309 315 317 316 315 313 314 305 296 291 290 292 295 297 302 304 308 311 308 303 296 293 295 291 289 288 286 287 287 288 288
289 289 289 290 291 292 294 295 297 300 306 308 313 316 316 316 314 312 313 309 309 300 296 291 293 295 298 300 302 305 300 294 292 294 294 290 291 289 287 285 286 287 287
289 289 290 290 292 293 294 296 297 301 307 309 313 315 315 315 313 310 310 307 312 311 305 293 293 294 296 296 295 296 293 291 291 294 292 293 292 288 286 283 285 285 286
289 289 290 291 291 292 295 296 298 300 302 310 313 315 315 315 312 308 308 306 309 309 308 294 295 292 292 293 292 292 292 292 290 291 291 290 288 287 283 284 284 284 284
290 290 291 292 292 294 294 296 298 300 302 307 312 313 313 312 309 307 306 305 306 308 301 294 291 289 291 291 291 290 288 288 287 286 287 286 286 286 284 283 282 282 281
290 291 292 292 292 292 293 293 294 298 300 303 311 312 312 312 307 306 304 303 303 301 300 291 286 288 287 286 286 286 286 286 286 285 284 284 284 283 282 282 281 280 279
289 290 291 293 293 293 294 294 294 295 300 304 311 310 310 308 305 301 301 301 299 298 295 291 287 286 284 283 284 283 282 283 282 282 282 282 281 281 281 280 280 278 277
289 289 291 292 293 294 295 294 295 298 300 302 303 304 305 304 302 303 299 297 298 295 290 288 285 284 282 282 282 281 279 279 280 281 280 280 279 279 279 279 278 275 275
288 289 289 291 292 293 295 296 298 297 297 297 295 298 298 299 299 299 299 298 298 294 288 286 284 283 282 282 281 280 278 278 278 278 280 278 276 277 276 276 275 274 274
286 287 288 288 290 291 292 292 293 293 292 292 292 293 292 293 294 293 292 292 292 291 291 291 284 283 281 281 281 279 280 279 277 278 279 275 274 275 275 275 274 274 274
285 285 286 287 288 288 288 287 289 290 289 288 289 289 289 289 292 292 291 290 288 288 289 290 286 283 282 281 282 281 279 278 275 274 274 274 274 274 274 274 274 274 274
284 284 285 286 286 286 287 288 288 285 285 285 288 287 286 288 290 291 289 285 284 283 285 286 285 284 282 282 283 282 279 276 271 272 273 273 272 273 273 273 273 273 273
283 283 284 284 285 285 285 285 285 284 283 284 284 284 285 286 286 287 287 283 281 281 281 282 281 281 279 279 282 283 282 276 272 271 273 273 272 273 273 273 273 273 273
Wind_Speed
16 22 32 35 38 36 36 37 36 34 35 35 28 31 34 38 35 39 39 38 35 32 31 27 28 26 24 24 23 22 21 19 17 17 15 14 14 12 11 9 7 7 8
20 26 19 28 34 39 39 41 40 38 39 36 35 32 30 36 38 38 39 38 37 35 31 30 28 28 26 24 23 23 22 21 19 18 17 15 13 10 10 10 8 6 6
16 15 23 27 32 35 39 37 42 41 40 36 34 37 33 37 41 40 38 41 40 37 37 34 32 30 30 28 24 24 24 23 20 20 18 16 13 12 11 10 9 8 6
22 21 23 24 27 37 36 34 40 39 39 36 33 35 37 38 40 40 40 41 45 43 40 38 36 33 31 29 29 25 25 25 23 22 19 16 14 12 11 10 9 8 6
30 25 24 28 25 27 37 39 35 39 35 32 33 32 33 33 35 40 39 43 44 44 44 40 38 37 35 32 30 29 26 25 24 23 21 19 17 14 12 10 9 8 6
30 28 29 26 26 29 36 37 39 43 36 34 31 35 37 37 37 38 35 43 45 44 45 44 42 41 39 36 34 33 30 28 27 25 23 20 19 16 13 11 10 9 7
31 29 31 31 31 30 33 39 32 40 36 31 30 21 25 31 39 39 37 38 42 44 48 45 45 44 42 41 37 34 33 32 31 28 26 22 19 17 14 12 11 9 8
35 35 34 32 30 33 32 35 38 26 35 42 23 16 4 6 20 34 37 35 40 42 43 49 48 43 45 44 40 36 34 33 30 28 27 24 22 18 15 13 11 9 7
28 32 35 34 32 33 33 33 29 38 27 36 42 14 4 7 4 12 28 34 33 40 41 45 46 49 50 45 45 39 36 35 33 29 28 26 23 19 17 14 12 9 8
30 32 32 33 32 32 32 32 37 35 25 31 37 43 26 14 5 2 10 22 33 31 36 34 42 46 47 48 49 46 43 39 36 31 28 27 23 21 17 14 11 10 8
29 30 31 30 31 29 31 30 26 27 33 23 41 36 31 19 21 3 4 6 21 31 32 33 38 42 48 47 50 49 44 43 38 36 30 26 23 19 16 13 11 9 8
28 29 32 35 34 32 33 29 29 28 35 36 29 42 41 22 13 8 3 6 12 16 33 36 36 40 42 49 49 51 49 46 42 40 36 27 23 20 15 12 10 9 8
28 28 30 33 34 35 36 32 31 30 31 28 33 40 40 43 36 32 23 4 4 7 15 30 32 36 40 46 54 52 51 47 44 37 36 27 23 19 15 12 11 10 9
30 28 30 31 27 29 30 29 30 29 28 32 39 42 39 40 40 34 31 15 2 2 4 7 28 31 35 37 45 52 52 53 43 38 36 26 23 19 15 11 10 9 9
32 30 31 31 31 32 36 37 35 33 32 31 35 32 37 34 37 34 36 36 16 7 9 16 16 35 34 37 45 51 53 43 39 40 31 25 19 18 17 13 11 10 10
31 30 30 30 29 31 33 28 25 27 28 30 27 33 33 26 28 31 35 37 35 22 9 12 14 38 41 43 48 50 47 39 33 32 26 20 17 18 15 13 11 10 11
30 30 29 28 29 30 28 30 29 27 29 27 29 32 38 33 29 29 31 35 31 26 10 8 23 29 44 45 43 43 39 35 30 27 21 18 20 19 15 12 11 10 10
32 31 29 29 28 26 25 23 26 26 30 25 33 31 37 31 31 27 24 21 26 24 11 12 21 26 35 43 46 39 36 33 30 23 20 21 20 18 13 12 11 11 9
28 30 29 28 29 31 31 31 24 26 32 31 36 36 34 35 33 33 30 27 22 18 18 16 10 19 24 35 37 36 34 28 24 21 19 18 16 14 12 12 12 11 9
17 23 28 29 28 29 30 32 31 30 32 33 38 38 34 36 35 35 32 30 26 22 20 23 21 22 23 29 29 30 28 27 26 23 20 18 15 12 13 14 13 12 11
10 7 12 20 25 27 30 30 28 26 30 30 28 31 33 34 33 35 33 30 30 24 23 21 17 18 18 28 28 22 21 27 21 21 21 18 16 18 17 15 18 13 11
22 16 10 6 4 11 16 20 23 27 28 30 28 27 27 27 27 24 25 27 30 33 20 16 11 19 20 27 24 27 27 15 5 17 20 17 17 21 20 19 15 13 10
27 26 24 21 22 21 17 17 23 26 26 29 31 33 29 28 27 26 24 23 21 19 22 28 27 22 27 28 33 30 26 19 9 17 21 17 20 20 20 18 15 14 11
30 29 30 27 24 25 28 28 32 34 33 32 29 31 36 34 33 30 27 25 21 18 18 20 24 27 25 33 33 30 30 23 16 18 22 8 16 16 17 17 18 16 14
30 30 32 31 29 30 30 34 35 29 34 32 31 28 29 36 31 31 34 31 27 21 15 16 18 22 21 30 33 33 30 26 5 7 18 7 10 10 12 14 15 15 12
28 30 33 33 33 36 34 32 36 31 31 28 31 28 28 35 29 28 34 34 30 24 29 30 28 25 22 21 24 26 31 26 11 4 15 10 10 7 4 9 11 10 9
Wind_Direction
331 249 233 231 226 221 221 219 217 217 214 213 201 202 203 205 197 193 187 183 184 182 179 177 176 171 171 171 171 170 168 166 165 161 157 154 146 143 146 139 135 129 122
308 302 296 237 232 224 224 223 218 219 217 216 207 206 202 205 208 195 192 189 189 188 184 181 179 177 174 175 176 175 170 166 166 164 159 161 163 152 151 149 149 139 127
313 311 294 297 231 232 232 220 216 222 219 217 205 207 205 210 209 207 199 192 194 194 188 185 183 185 180 176 184 181 175 172 173 172 169 169 168 165 161 152 149 144 138
282 278 283 297 292 232 234 220 208 210 212 208 202 200 204 209 215 214 212 200 196 195 196 188 187 188 185 182 179 186 180 177 178 177 175 175 172 171 166 166 159 156 158
281 275 261 261 281 276 223 218 207 204 201 204 204 200 203 205 210 215 212 206 201 197 197 197 194 191 189 187 184 185 188 184 181 179 178 176 175 176 177 174 168 172 159
279 271 263 263 259 269 270 219 208 205 207 202 199 200 203 204 208 213 212 208 205 201 198 198 198 194 193 190 190 188 189 191 185 181 182 179 180 179 178 179 178 181 179
272 267 263 264 262 257 258 261 230 201 197 194 173 185 197 202 208 209 210 204 203 201 200 201 197 197 198 194 194 196 194 192 187 183 181 182 181 180 177 184 186 188 187
268 265 263 261 252 250 251 254 257 226 196 185 193 164 191 223 213 205 211 216 200 201 203 201 199 198 198 197 199 201 198 191 191 188 183 181 177 179 177 187 192 193 198
273 269 262 256 250 243 244 244 252 253 196 187 199 186 169 213 140 211 211 214 213 208 205 201 202 204 201 198 202 199 198 192 190 189 184 179 176 177 180 183 189 198 204
272 265 263 258 252 244 239 236 231 239 267 194 200 204 208 178 188 161 214 218 214 221 215 207 201 202 200 201 202 201 196 194 187 186 187 177 175 174 182 178 191 198 208
268 262 260 259 254 244 237 227 219 226 239 257 202 196 199 193 187 143 163 192 218 214 215 217 214 205 207 206 202 200 196 193 186 183 180 173 169 176 177 178 187 206 212
270 261 255 255 255 254 253 248 247 233 233 239 239 206 199 197 195 186 136 175 209 211 210 216 216 209 204 204 205 202 196 192 185 179 169 170 167 171 174 176 189 203 216
268 263 255 251 249 246 244 241 234 235 231 238 248 220 208 209 208 205 189 159 162 192 205 215 215 213 207 200 201 201 193 182 176 164 172 167 166 171 174 179 187 202 215
260 258 256 251 248 246 243 241 240 239 235 230 235 215 217 212 209 200 196 179 116 134 169 174 209 210 198 198 193 191 183 182 168 168 184 174 167 167 182 184 199 206 216
257 255 253 250 250 250 247 245 241 239 232 232 230 214 218 216 209 199 199 192 192 171 201 193 175 206 193 188 179 179 175 167 165 175 182 177 184 186 188 204 211 214 224
254 252 250 246 245 244 250 250 252 246 240 235 229 209 216 218 207 199 195 193 199 200 190 173 201 188 190 183 174 174 171 163 168 186 188 200 204 190 184 204 209 220 228
251 249 246 246 247 248 245 241 239 241 245 226 225 204 210 205 201 201 204 194 197 195 189 162 186 185 180 180 175 178 174 175 172 184 190 185 185 183 185 204 217 222 228
254 245 241 237 241 243 248 252 245 241 248 242 213 200 195 189 192 198 202 200 202 203 183 152 164 170 180 182 179 177 175 176 172 165 173 175 182 189 186 208 221 219 233
263 245 237 233 238 248 244 241 250 239 242 246 220 207 197 195 185 189 190 186 188 189 188 140 122 151 153 169 163 167 174 174 174 167 164 170 177 176 191 213 220 224 239
293 254 240 240 243 239 245 250 246 242 243 234 216 209 202 193 184 181 179 183 174 157 148 138 133 143 146 156 159 155 158 173 169 169 173 180 178 184 202 215 217 230 242
359 310 260 244 242 243 244 240 237 224 205 191 188 183 188 191 187 185 178 167 166 155 146 139 137 149 145 158 170 169 153 163 168 179 179 182 181 197 204 210 222 246 245
27 43 56 88 171 234 237 224 206 177 167 154 143 151 157 166 169 172 178 181 185 166 145 140 149 155 160 161 160 156 146 147 151 190 185 186 200 215 219 224 234 241 234
32 34 40 56 73 81 111 123 138 135 126 127 130 131 130 138 141 139 139 149 151 153 176 176 158 160 158 164 156 154 161 155 144 172 182 194 210 217 221 221 238 228 240
41 39 40 47 62 76 90 95 106 110 104 106 108 117 125 131 131 134 137 127 137 151 177 179 173 168 168 168 168 166 160 147 136 161 179 173 200 210 216 225 226 233 254
47 46 46 47 52 56 70 92 98 88 89 91 111 119 122 119 128 138 136 124 113 109 128 145 151 160 157 170 176 169 160 147 108 169 184 169 179 186 202 216 231 251 252
51 50 51 50 55 55 62 74 89 77 80 83 85 89 101 110 122 133 133 123 107 111 114 113 112 118 131 140 167 181 172 158 129 156 193 187 163 169 183 224 229 236 239